Weather History for KOLZ - February, 2014

Change the Weather History Date:

Saturday, February 1, 2014

  Actual Average Record
Temperature  
Mean Temperature 11 °F -  
Max Temperature 19 °F 26 °F 44 °F (1954)
Min Temperature 3 °F 7 °F -19 °F (1951)
Degree Days  
Heating Degree Days 54    
Moisture  
Dew Point 7 °F    
Average Humidity 85    
Maximum Humidity 93    
Minimum Humidity 72    
Precipitation  
Precipitation 0.03 in - - ()
Sea Level Pressure  
Sea Level Pressure 30.01 in    
Wind  
Wind Speed 6 mph (North)    
Max Wind Speed 16 mph    
Max Gust Speed -    
Visibility 7 miles    
Events Snow    
Averages and records for this station are not official NWS values.
T = Trace of Precipitation, MM = Missing Value Source: NWS Daily Summary

Daily Weather History Graph

Daily Weather History Graph

Search for Another Location

Airport or City:

Trip Planner

Search our weather history database for the weather conditions in past years. The results will help you decide how hot, cold, wet, or windy it might be!

Date:

Astronomy

Feb. 01, 2014 Rise Set
Actual Time 7:22 AM CST 5:21 PM CST
Civil Twilight 6:52 AM CST 5:51 PM CST
Nautical Twilight 6:18 AM CST 6:25 PM CST
Astronomical Twilight 5:45 AM CST 6:58 PM CST
Moon 8:08 AM CST (2/1) 8:01 PM CST (2/1)
Length of Visible Light 10h 59m
Length of Day
9h 59m
Waxing Crescent, 5% of the Moon is Illuminated
Feb 1
Waxing Crescent
Feb 6
First Quarter
Feb 14
Full
Feb 22
Last Quarter
Mar 1
New

Hourly Weather History & Observations

Time (CST) Temp. Windchill Dew Point Humidity Pressure Visibility Wind Dir Wind Speed Gust Speed Precip Events Conditions
12:15 AM 5.0 °F -4.1 °F -0.4 °F 78% 30.02 in 10.0 mi ENE 4.6 mph - N/A   Overcast
12:35 AM 6.8 °F -2.0 °F -0.4 °F 72% 30.02 in 10.0 mi ESE 4.6 mph - N/A   Overcast
12:55 AM 6.8 °F -0.1 °F -0.4 °F 72% 30.03 in 10.0 mi East 3.5 mph - N/A   Overcast
1:15 AM 6.8 °F - -0.4 °F 72% 30.03 in 5.0 mi Calm Calm - N/A Snow Light Snow
1:35 AM 6.8 °F -0.1 °F 1.4 °F 79% 30.02 in 2.0 mi ENE 3.5 mph - N/A Snow Light Snow
1:55 AM 6.8 °F -3.5 °F 3.2 °F 85% 30.01 in 2.0 mi ENE 5.8 mph - N/A Snow Light Snow
2:15 AM 6.8 °F -3.5 °F 3.2 °F 85% 30.00 in 2.0 mi ENE 5.8 mph - N/A Snow Light Snow
2:35 AM 6.8 °F -3.5 °F 3.2 °F 85% 30.00 in 3.0 mi East 5.8 mph - N/A Snow Light Snow
2:55 AM 6.8 °F -3.5 °F 3.2 °F 85% 29.99 in 3.0 mi ENE 5.8 mph - N/A Snow Light Snow
3:15 AM 6.8 °F -3.5 °F 5.0 °F 92% 29.98 in 6.0 mi ENE 5.8 mph - N/A Snow Light Snow
3:35 AM 8.6 °F 0.1 °F 5.0 °F 85% 29.97 in 10.0 mi ENE 4.6 mph - N/A Snow Light Snow
3:55 AM 8.6 °F 2.0 °F 5.0 °F 85% 29.98 in 5.0 mi East 3.5 mph - N/A Snow Light Snow
4:15 AM 8.6 °F 2.0 °F 5.0 °F 85% 29.97 in 1.8 mi ENE 3.5 mph - N/A Snow Light Snow
4:35 AM 8.6 °F -2.6 °F 6.8 °F 92% 29.95 in 2.0 mi NE 6.9 mph - N/A Snow Light Snow
4:55 AM 8.6 °F -2.6 °F 6.8 °F 92% 29.94 in 2.0 mi NE 6.9 mph - N/A Snow Light Snow
5:15 AM 8.6 °F -1.3 °F 5.0 °F 85% 29.95 in 2.5 mi ENE 5.8 mph - N/A Snow Light Snow
5:35 AM 8.6 °F -2.6 °F 6.8 °F 92% 29.95 in - ENE 6.9 mph - N/A Snow Light Snow
5:55 AM 8.6 °F -1.3 °F 6.8 °F 92% 29.94 in 2.5 mi ENE 5.8 mph - N/A Snow Light Snow
6:15 AM 8.6 °F -1.3 °F 6.8 °F 92% 29.96 in 1.8 mi ENE 5.8 mph - N/A Snow Light Snow
6:35 AM 8.6 °F -1.3 °F 5.0 °F 85% 29.94 in 1.8 mi ENE 5.8 mph - N/A Snow Light Snow
6:55 AM 8.6 °F -2.6 °F 6.8 °F 92% 29.94 in 2.5 mi ENE 6.9 mph - N/A Snow Light Snow
7:15 AM 8.6 °F -1.3 °F 6.8 °F 92% 29.95 in 1.5 mi ENE 5.8 mph - N/A Snow Light Snow
7:35 AM 8.6 °F 0.1 °F 6.8 °F 92% 29.96 in 2.0 mi ENE 4.6 mph - N/A Snow Light Snow
7:55 AM 8.6 °F -1.3 °F 6.8 °F 92% 29.95 in 3.0 mi NE 5.8 mph - N/A Snow Light Snow
8:15 AM 10.4 °F -0.4 °F 6.8 °F 85% 29.95 in 1.8 mi NE 6.9 mph - N/A Snow Light Snow
8:35 AM 10.4 °F 0.8 °F 6.8 °F 85% 29.95 in 3.0 mi NE 5.8 mph - N/A Snow Light Snow
8:55 AM 10.4 °F -0.4 °F 6.8 °F 85% 29.94 in 3.0 mi NE 6.9 mph - N/A Snow Light Snow
9:15 AM 10.4 °F 0.8 °F 6.8 °F 85% 29.95 in 6.0 mi NNE 5.8 mph - N/A Snow Light Snow
9:35 AM 10.4 °F -0.4 °F 8.6 °F 92% 29.95 in 2.5 mi North 6.9 mph - N/A Snow Light Snow
9:55 AM 12.2 °F 2.9 °F 8.6 °F 85% 29.96 in 5.0 mi North 5.8 mph - N/A Snow Light Snow
10:15 AM 12.2 °F 6.1 °F 8.6 °F 85% 29.96 in 5.0 mi NNE 3.5 mph - N/A Snow Light Snow
10:35 AM 12.2 °F - 8.6 °F 85% 29.98 in 6.0 mi Calm Calm - N/A   Clear
10:55 AM 14.0 °F - 10.4 °F 86% 29.97 in 3.0 mi Calm Calm - N/A Snow Light Snow
11:15 AM 14.0 °F - 10.4 °F 86% 29.97 in 4.0 mi Calm Calm - N/A Snow Light Snow
11:35 AM 15.8 °F 10.2 °F 12.2 °F 86% 29.97 in 4.0 mi NNW 3.5 mph - N/A Snow Light Snow
11:55 AM 15.8 °F 7.2 °F 12.2 °F 86% 29.98 in 2.5 mi NNW 5.8 mph - N/A Snow Light Snow
12:15 PM 15.8 °F 6.1 °F 12.2 °F 86% 29.97 in 3.0 mi NNW 6.9 mph - N/A Snow Light Snow
12:35 PM 17.6 °F 8.2 °F 14.0 °F 86% 29.96 in 9.0 mi NNW 6.9 mph - N/A   Clear
12:55 PM 17.6 °F 12.3 °F 14.0 °F 86% 29.95 in 6.0 mi North 3.5 mph - N/A   Scattered Clouds
1:15 PM 17.6 °F 12.3 °F 12.2 °F 79% 29.94 in 10.0 mi North 3.5 mph - N/A   Partly Cloudy
1:35 PM 15.8 °F - 14.0 °F 93% 29.95 in 10.0 mi Calm Calm - N/A   Clear
1:55 PM 17.6 °F - 14.0 °F 86% 29.96 in 10.0 mi Calm Calm - 0.02 in   Partly Cloudy
2:15 PM 15.8 °F 10.2 °F 14.0 °F 93% 29.96 in 10.0 mi West 3.5 mph - N/A   Partly Cloudy
2:35 PM 19.4 °F 9.5 °F 15.8 °F 86% 29.96 in 10.0 mi WNW 8.1 mph - N/A   Mostly Cloudy
2:55 PM 17.6 °F 5.7 °F 15.8 °F 93% 29.97 in 10.0 mi WNW 10.4 mph - 0.01 in   Overcast
3:15 PM 19.4 °F 6.6 °F 15.8 °F 86% 29.98 in 10.0 mi WNW 12.7 mph - N/A   Overcast
3:35 PM 19.4 °F 7.2 °F 15.8 °F 86% 29.98 in 10.0 mi NW 11.5 mph - N/A   Overcast
3:55 PM 19.4 °F 7.9 °F 15.8 °F 86% 29.99 in 10.0 mi NW 10.4 mph - N/A   Overcast
4:15 PM 19.4 °F 7.9 °F 15.8 °F 86% 29.99 in 10.0 mi NW 10.4 mph - N/A   Overcast
4:35 PM 19.4 °F 7.9 °F 15.8 °F 86% 30.00 in 10.0 mi WNW 10.4 mph - N/A   Overcast
4:55 PM 15.8 °F 3.4 °F 12.2 °F 86% 30.01 in 10.0 mi NW 10.4 mph - N/A   Mostly Cloudy
5:15 PM 10.4 °F -1.5 °F 6.8 °F 85% 30.01 in 10.0 mi NW 8.1 mph - N/A   Clear
5:35 PM 6.8 °F -5.9 °F 5.0 °F 92% 30.02 in 10.0 mi NW 8.1 mph - N/A   Partly Cloudy
5:55 PM 8.6 °F -4.7 °F 6.8 °F 92% 30.03 in 10.0 mi NW 9.2 mph - N/A   Partly Cloudy
6:15 PM 10.4 °F -4.8 °F 8.6 °F 92% 30.05 in 10.0 mi NW 12.7 mph - N/A   Clear
6:35 PM 10.4 °F -4.8 °F 8.6 °F 92% 30.06 in 10.0 mi NW 12.7 mph - N/A   Clear
6:55 PM 12.2 °F -4.3 °F 8.6 °F 85% 30.07 in 10.0 mi NW 16.1 mph - N/A   Clear
7:15 PM 10.4 °F -6.6 °F 6.8 °F 85% 30.08 in 10.0 mi NW 16.1 mph - N/A   Clear
7:35 PM 8.6 °F -7.0 °F 5.0 °F 85% 30.09 in 10.0 mi NW 12.7 mph - N/A   Clear
7:55 PM 8.6 °F -7.0 °F 5.0 °F 85% 30.10 in 10.0 mi NW 12.7 mph - N/A   Clear
8:15 PM 8.6 °F -7.7 °F 5.0 °F 85% 30.10 in 10.0 mi NW 13.8 mph - N/A   Clear
8:35 PM 8.6 °F -6.3 °F 3.2 °F 79% 30.11 in 10.0 mi NW 11.5 mph - N/A   Clear
8:55 PM 8.6 °F -8.3 °F 3.2 °F 79% 30.12 in 10.0 mi NW 15.0 mph - N/A   Clear
9:15 PM 8.6 °F -8.9 °F 3.2 °F 79% 30.13 in 10.0 mi NW 16.1 mph - N/A   Clear
9:35 PM 5.0 °F -10.8 °F -0.4 °F 78% 30.14 in 10.0 mi WNW 11.5 mph - N/A   Clear
9:55 PM 5.0 °F -10.8 °F -0.4 °F 78% 30.15 in 10.0 mi NW 11.5 mph - N/A   Clear
10:15 PM 5.0 °F -12.3 °F -0.4 °F 78% 30.16 in 10.0 mi NW 13.8 mph - N/A   Partly Cloudy
10:35 PM 3.2 °F -13.1 °F -2.2 °F 78% 30.16 in 10.0 mi NW 11.5 mph - N/A   Scattered Clouds
10:55 PM 5.0 °F -12.3 °F -2.2 °F 72% 30.16 in 10.0 mi NW 13.8 mph - N/A   Scattered Clouds
11:15 PM 3.2 °F -14.6 °F -2.2 °F 78% 30.17 in 10.0 mi NW 13.8 mph - N/A   Scattered Clouds
11:35 PM 3.2 °F -15.3 °F -2.2 °F 78% 30.17 in 10.0 mi NW 15.0 mph - N/A   Scattered Clouds
11:55 PM 3.2 °F -15.9 °F -4.0 °F 72% 30.18 in 10.0 mi NW 16.1 mph - N/A   Scattered Clouds